Regional Weather Roundup
Issued by NWS Green Bay, WI

Home | Current Version | Previous Version | Text Only | Print | Product List | Glossary On
Versions: 1 2 3 4 5 6 7 8 9 10 11 12 13 14 15 16 17 18 19 20 21 22 23 24 25 26 27 28 29 30 31 32 33 34 35 36 37 38 39 40 41 42 43 44 45 46 47 48 49 50
000
ASUS43 KGRB 292000
RWRGRB

NORTH-CENTRAL AND NORTHEAST WISCONSIN REGIONAL WEATHER ROUNDUP
NATIONAL WEATHER SERVICE GREEN BAY WI
300 PM CDT FRI APR 29 2016

WIZ005-009-010>012-018-019-292100-
NORTH CENTRAL WISCONSIN

CITY           SKY/WX    TMP DP  RH WIND       PRES   REMARKS
IRONWOOD         N/A     48  34  57 N12       30.14F
MANITOWISH WTR NOT AVBL
ARBOR VITAE    NOT AVBL
EAGLE RIVER    NOT AVBL
LAND O LAKES   NOT AVBL
RHINELANDER    PTSUNNY   55  32  41 E8        30.12F
PHILLIPS       SUNNY     56  31  38 N3        30.10F
ANTIGO         NOT AVBL
TOMAHAWK       NOT AVBL
MERRILL        CLOUDY    56  35  44 E5        30.10F
$$

WIZ013-073-292100-
NORTHEAST WISCONSIN

CITY           SKY/WX    TMP DP  RH WIND       PRES   REMARKS
IRON MOUNTAIN  CLOUDY    57  24  28 S6        30.11F
MARINETTE      CLOUDY    52  21  30 E8        30.16S
$$

WIZ017-030-035>037-045-292100-
CENTRAL WISCONSIN

CITY           SKY/WX    TMP DP  RH WIND       PRES   REMARKS
MEDFORD        NOT AVBL
WAUSAU         CLOUDY    56  35  45 SE7       30.09F
MOSINEE        CLOUDY    54  36  50 E8        30.12F
MARSHFIELD     CLOUDY    54  37  52 MISG      30.10F
WISC RAPIDS    CLOUDY    55  33  43 E10       30.12F
STEVENS POINT  NOT AVBL
WAUPACA        CLOUDY    56  33  41 E7        30.13F
SHAWANO        CLOUDY    56  36  47 E10       30.13F
CLINTONVILLE   NOT AVBL
WAUTOMA        MOSUNNY   55  33  43 E12       30.10F
$$

WIZ038-039-048-051-292100-
FOX VALLEY

CITY           SKY/WX    TMP DP  RH WIND       PRES   REMARKS
NWS GREEN BAY  CLOUDY    55  34  45 NE10      30.14F
APPLETON       PTSUNNY   52  30  43 NE10      30.11F
OSHKOSH        MOSUNNY   54  32  43 NE13      30.11F
FOND DU LAC    SUNNY     55  34  45 N13       30.10F
$$

WIZ022-050-052-292100-
EAST CENTRAL WISCONSIN

CITY           SKY/WX    TMP DP  RH WIND       PRES   REMARKS
EPHRAIM        NOT AVBL
STURGEON BAY   MOSUNNY   52  28  40 N7        30.17F
MANITOWOC      NOT AVBL
SHEBOYGAN      SUNNY     50  31  48 NE15      30.12F
$$

LMZ563-521-522-541>543-292100-
LAKESHORE

STATION/POSITION TIME  TEMP    WIND        PRES    VSBY  WAVE
                       AIR SEA DIR/SP/G                  HT/PER
                 (UTC) (F)     (DEG/KT/KT) (MB)    (MI)  (FT/S)
SHEBOYGAN LKSHOR 1900   42      30/  8/  9 1022.1R
KEWAUNEE LKSHORE 1900   45      30/  8/ 10 1020.8R
ALGOMA MARINA    1900           70/ 12/ 13   N/A
NORTHPORT PIER   1900   45     360/  2/  3 1021.0R
N MID LAKE BUOY  1850   39 39   20/  6/  6 1020.9R         1
CHAMBERS ISLAND  1900   48     330/  2/  3 1021.7
MENOMINEE LKSHOR 1900   44     360/  3/  4 1020.5R
$$




USA.gov is the U.S. government's official web portal to all federal, state and local government web resources and services.